Regional Weather Roundup
Issued by NWS Upton, NY

Current Version | Previous Version | Text Only | Print | Product List | Glossary Off
Versions: 1 2 3 4 5 6 7 8 9 10 11 12 13 14 15 16 17 18 19 20 21 22 23 24 25 26 27 28 29 30
000 ASUS41 KOKX 251005 RWROKX REGIONAL WEATHER ROUNDUP NATIONAL WEATHER SERVICE NEW YORK NY 600 AM EDT THU AUG 25 2016 NOTE: "FAIR" INDICATES FEW OR NO CLOUDS BELOW 12,000 FEET WITH NO SIGNIFICANT WEATHER AND/OR OBSTRUCTIONS TO VISIBILITY. NYZ071-072-176-178-NJZ106-104-251100- NEW YORK CITY METRO AREA CITY SKY/WX TMP DP RH WIND PRES REMARKS Central Park N/A 70 63 78 MISG N/A LaGuardia APRT PTCLDY 73 63 70 SW9 30.12S Kennedy INTL MOCLDY 70 66 87 W12 30.14S Newark/Liberty PTCLDY 68 63 84 SW8 30.13S Bronx Bot Gard N/A 72 61 68 W7 30.15R Wall St Helipt SUNNY 72 64 78 W7 30.14S Teterboro PTCLDY 68 62 81 S3 30.12S $$ NYZ177-179-078>081-251100- LONG ISLAND NEW YORK CITY SKY/WX TMP DP RH WIND PRES REMARKS Farmingdale CLEAR 68 63 84 SW5 30.14R MacArthur/ISP PTCLDY 67 63 87 SW5 30.14R Shirley CLEAR 67 65 93 CALM 30.15R Riverhead NOT AVBL Westhampton CLEAR 64 61 90 CALM 30.16R Southampton N/A 70 68 94 W5 30.11R Bridgehampton N/A 66 64 94 CALM 30.14R East Hampton FAIR 67 65 93 CALM 30.14R Montauk N/A 70 67 90 SW6 30.15S $$ NYZ052-065-067-251100- HUDSON VALLEY CITY SKY/WX TMP DP RH WIND PRES REMARKS White Plains CLEAR 67 62 84 CALM 30.13S Newburgh CLEAR 64 63 94 CALM 30.13S Montgomery CLEAR 61 60 97 CALM 30.11S FOG Poughkeepsie CLEAR 64 60 87 CALM 30.10F Albany PTCLDY 68 62 81 S10 30.06S $$ NJZ001-105-106-008-010-013-015-019>022-104-251100- NEW JERSEY CITY SKY/WX TMP DP RH WIND PRES REMARKS Newark/Liberty PTCLDY 68 63 84 SW8 30.13S Teterboro PTCLDY 68 62 81 S3 30.12S Caldwell PTCLDY 66 62 87 CALM 30.13S Morristown CLEAR 59 57 94 CALM 30.13S FOG Somerville PTCLDY 59 57 93 CALM 30.11F FOG Linden FAIR 68 62 80 CALM 30.14S Sussex CLEAR 59 59 100 CALM 30.12S Abdover N/A 60 59 96 SW3 30.12F Trenton PTCLDY 65 62 90 CALM 30.13S Millville CLEAR 64 63 96 CALM 30.14F Atlantic City PTCLDY 65 61 87 S3 30.15S Wrightstown CLEAR 63 61 94 CALM 30.12S Toms River CLEAR 61 59 93 CALM 30.15S Belmar CLEAR 65 62 90 SW6 30.15S $$ PAZ047>061-062-071-251100- EASTERN PENNSYLVANIA CITY SKY/WX TMP DP RH WIND PRES REMARKS Philadelphia PTCLDY 69 61 75 SW5 30.14S Allentown CLEAR 64 60 87 CALM 30.12S Scranton CLEAR 67 62 84 CALM 30.10F $$ CTZ002-004>006-009-010-012-RIZ004-006-007-MAZ004-011-015-251100- SOUTHERN NEW ENGLAND IN CT CITY SKY/WX TMP DP RH WIND PRES REMARKS Bradley INTL PTCLDY 66 63 90 S9 30.11S Hartford CLEAR 70 65 84 S6 30.12R Danbury CLEAR 62 61 96 CALM 30.14S Wtrbury/Oxford PTCLDY 63 57 82 SW3 30.14F Bridgeport CLEAR 69 63 81 CALM 30.13R Meriden CLEAR 64 61 90 S3 30.13R New Haven PTCLDY 72 65 78 VRB6 30.13S Chester FAIR 66 64 94 CALM 30.14S Groton CLEAR 71 66 84 SW7 30.13R Wilimantic CLEAR 61 60 97 CALM 30.14R IN RI CITY SKY/WX TMP DP RH WIND PRES REMARKS Providence PTCLDY 68 64 87 SW7 30.13S Block Island CLEAR 70 67 90 SW8 30.15S Westerly CLEAR 70 65 84 SW3 30.15R IN MA CITY SKY/WX TMP DP RH WIND PRES REMARKS Boston PTCLDY 68 65 90 SW12 30.10R Worcester CLEAR 64 61 90 SW13 30.13R Westfield CLEAR 61 60 97 CALM 30.10S Provincetown CLOUDY 68 67 96 S12 30.13F Nantucket CLOUDY 69 64 84 SW10 30.17R $$ ANZ330-335-338-340-345-350-353-355-251100- COASTAL MARINE OBSERVATIONS STATION/POSITION TIME SKY/WX TEMP WIND PRES VSBY WAVE AIR SEA DIR/SP/G HT/PER (UTC) (F) (DEG/KT/KT) (MB) (MI) (FT/S) NY HARB ENTRANCE 0850 72 74 230/ 14/ 16 1019.9 3/ 4 20S FIRE ISLAND 0850 74 76 230/ 14/ 16 1020.0 3/11 GREAT SOUTH BAY 0900 74 78 250/ 12/ 17 N/A 23 SSW MONTAUK P 0850 74 74 240/ 14/ 16 1020.9 3/11 15 E BARNEGAT LI 0900 75 N/A 3/11 HUDSON CANYON 0850 75 77 1020.4 2/11 KINGS POINT 0900 72 76 1020.0 EXECUTION ROCKS 0900 74 240/ 10/ 16 N/A CENTRAL LI SOUND 0930 73 74 230/ 14/ 16 N/A 2/ 4 EASTERN LI SOUND 0900 72 70 230/ 10/ 14 N/A ROBBINS REEF 0900 71 260/ 14/ 15 1019.5 $$ >>>>>>>>>>>>>>>>>>>>>>>>>>>> KEY <<<<<<<<<<<<<<<<<<<<<<<<<<< > < > SKY/WX - Sky Condition/Present Weather < > TMP - Temperature in Fahrenheit < > DP - Dew Point in Fahrenheit < > RH - Relative Humidity in Percent < > WIND - Direction (from) and Speed in MPH < > PRES - Mean Sea Level Pressure (inches of Hg) < > WCI - Wind Chill Index < > VSB - VISIBILITY IN MILES < > HX - HEAT INDEX < > TC - TEMPERATURE IN CELSIUS < > VRB - VARIABLE WIND DIRECTION < > < >>>>>>>>>>>>>>>>>>>>>>>>>>>> KEY <<<<<<<<<<<<<<<<<<<<<<<<<<<

USA.gov is the U.S. government's official web portal to all federal, state and local government web resources and services.